Theta_e
329 329 328 327 328 329 328 328 328 328 328 328 326 327 327 328 329 328 328 328 328 328 328 328 327 326 325 325 325 324 323 324 323 323 322 321 320 320 318 318 317 316
328 328 327 328 327 328 328 329 328 327 327 328 327 328 328 328 328 328 327 327 326 326 327 327 326 325 324 324 323 323 322 322 321 321 320 319 318 318 317 316 316 315
328 328 327 326 326 327 328 328 329 328 327 327 328 328 328 328 328 328 327 326 325 325 325 325 324 324 323 323 322 322 321 320 319 318 318 318 316 315 314 315 315 313
326 326 326 327 327 327 327 327 328 328 328 327 327 328 328 328 328 326 326 320 324 323 323 323 322 322 322 322 321 321 320 319 318 316 317 317 315 314 313 312 311 310
325 325 326 326 327 327 327 327 327 328 328 327 328 328 327 326 324 323 323 321 322 321 321 321 321 320 320 320 319 318 317 316 315 315 313 312 311 311 310 308 308 307
323 324 324 325 326 326 326 326 327 328 327 326 326 325 325 323 322 320 319 318 319 318 318 319 319 318 318 317 316 316 314 311 311 312 310 309 308 308 307 306 305 304
321 322 323 324 325 326 327 327 328 327 326 325 324 323 323 320 319 319 318 317 317 316 316 316 316 316 316 315 315 313 311 310 309 310 307 306 305 304 304 304 302 300
320 321 323 324 324 325 325 326 326 325 324 323 322 321 320 319 318 317 316 316 316 315 315 315 315 315 313 313 312 310 308 308 308 308 305 304 302 301 302 301 300 298
318 319 321 322 322 322 322 323 323 323 322 319 319 318 317 318 317 316 315 315 314 313 315 314 314 313 313 312 310 309 307 306 306 306 305 302 300 299 299 299 298 296
316 317 317 318 318 319 319 320 320 319 318 317 317 316 315 314 315 315 313 313 312 311 312 312 312 311 311 311 310 308 306 305 306 306 305 302 301 299 298 297 296 295
314 314 315 315 315 316 316 316 317 316 315 315 315 314 313 312 310 311 311 311 311 311 310 309 309 309 309 309 308 307 306 305 305 304 303 301 300 298 294 296 296 294
311 312 312 313 313 314 314 314 313 313 312 311 312 312 309 308 308 308 308 309 310 310 309 308 308 308 308 308 307 305 303 303 302 300 300 299 297 296 296 296 294 293
308 309 310 310 310 311 310 309 310 308 308 309 306 308 307 305 304 305 303 307 307 306 306 306 306 306 307 307 305 303 302 299 298 298 298 297 296 295 295 295 294 293
306 306 306 307 307 306 306 304 305 304 304 303 300 304 302 302 302 303 300 301 303 303 304 302 302 302 303 302 301 300 299 298 297 296 296 295 295 294 294 293 292 292
306 304 304 304 300 300 299 299 299 298 297 297 297 298 300 300 301 300 298 298 298 299 299 298 300 300 300 299 298 298 299 298 297 296 295 294 293 291 291 291 291 291
304 301 301 299 298 297 295 295 295 295 295 294 295 296 296 296 297 298 298 298 298 296 296 296 297 298 294 295 297 298 298 297 296 295 294 293 291 290 290 290 289 289
298 297 295 295 295 294 294 294 294 293 292 293 293 293 293 293 294 295 295 296 297 297 296 295 295 296 293 296 297 297 297 296 295 294 293 291 290 289 289 288 288 287
295 295 293 293 293 293 293 293 292 291 292 292 292 291 291 291 292 294 295 294 295 295 295 295 295 292 294 295 296 296 295 295 294 293 291 291 290 289 288 287 286 285
293 293 292 292 292 292 291 291 291 291 291 291 291 291 290 291 292 292 292 291 292 293 293 292 292 292 294 295 295 295 295 294 293 293 292 291 289 288 287 286 285 284
293 292 292 292 292 291 291 291 290 291 291 291 290 290 290 290 290 291 291 291 292 292 291 291 291 291 294 294 294 294 294 293 293 293 291 290 289 287 286 285 285 284
293 292 292 292 291 291 290 290 290 290 290 290 290 290 290 291 290 290 290 290 290 291 291 291 291 291 293 293 294 294 294 293 293 291 289 288 287 286 286 285 285 284
292 292 292 291 290 290 290 290 290 289 288 289 290 290 290 290 290 290 289 289 289 290 290 291 291 291 292 293 293 293 293 291 290 289 288 287 286 286 285 285 285 284
292 292 291 291 290 289 289 289 289 289 289 289 288 288 289 289 289 289 289 288 288 288 290 290 289 289 291 292 292 293 291 289 288 288 287 286 285 285 285 284 284 284
292 292 291 290 289 289 289 289 289 290 289 288 289 289 289 289 289 289 288 288 288 288 289 289 289 288 290 291 292 292 289 288 287 287 286 285 285 284 284 284 284 284
292 290 290 289 289 289 289 289 288 289 289 289 290 289 289 289 289 289 288 288 287 288 287 288 288 287 289 290 291 291 289 287 287 287 285 284 284 283 283 283 283 284
293 289 289 289 288 288 288 289 289 289 288 288 289 290 289 289 289 288 287 287 287 287 287 288 288 288 288 290 290 291 290 287 287 286 284 284 283 282 281 282 282 282
Wind_Speed
13 12 13 13 15 11 10 11 11 11 10 10 13 13 12 11 11 13 13 12 12 12 11 11 10 10 8 9 9 7 7 9 8 8 8 8 8 8 8 7 6 5
15 13 10 9 11 9 10 11 11 11 10 12 12 12 11 11 12 12 12 13 12 12 11 11 10 10 10 9 9 9 8 7 8 6 8 9 6 6 7 7 7 5
13 13 13 13 14 11 12 11 11 10 10 11 12 11 10 10 12 12 12 12 12 12 11 10 10 11 11 10 9 9 8 8 8 7 8 9 6 6 5 6 6 7
13 14 11 11 12 11 10 10 11 10 10 10 12 11 9 9 10 11 11 13 12 11 10 10 10 10 10 10 10 8 9 8 7 7 7 6 7 7 6 5 5 6
12 12 12 11 11 11 11 11 12 9 9 10 7 9 8 7 9 9 9 10 10 11 10 10 10 10 10 9 9 8 8 7 7 8 7 6 5 6 6 6 7 7
12 11 10 11 11 11 11 11 11 6 9 9 9 7 7 8 9 9 9 10 9 10 10 10 10 10 10 9 9 8 8 7 7 8 8 7 6 6 6 7 8 8
10 9 10 9 11 11 10 10 9 8 8 8 7 9 8 8 9 9 9 10 10 10 11 11 11 10 9 8 9 9 8 8 9 8 9 7 8 8 7 8 8 8
9 8 9 9 10 10 10 10 10 10 9 9 10 9 9 10 10 9 9 10 10 10 11 11 11 11 10 9 9 9 9 7 8 9 8 9 8 8 8 7 8 9
6 7 7 9 9 10 11 11 10 9 8 9 9 8 8 9 10 9 9 9 10 10 11 11 12 12 11 11 10 11 10 8 8 9 9 9 9 9 9 8 8 8
7 6 7 8 9 9 10 9 8 7 6 8 8 6 8 7 8 9 9 9 10 10 10 10 10 11 11 11 12 11 10 10 9 8 8 9 10 10 9 9 9 9
8 7 8 9 9 7 9 8 8 7 6 7 6 7 6 7 6 6 9 10 10 11 11 10 11 11 11 10 9 9 10 10 9 8 8 8 8 9 8 9 9 8
8 7 8 8 8 8 8 7 7 7 6 5 6 7 6 6 7 7 8 9 9 10 10 11 11 10 11 11 9 8 8 8 9 8 8 8 8 8 8 8 9 8
6 6 6 6 6 7 5 6 6 6 7 7 6 7 8 7 6 7 6 7 8 8 8 8 10 12 12 10 9 9 9 9 9 9 8 8 8 8 7 7 7 8
6 5 5 5 4 4 4 5 5 5 6 6 6 7 7 8 8 9 7 6 7 8 9 9 9 8 9 9 9 9 10 9 10 9 9 8 8 8 7 7 7 7
6 4 5 4 4 3 3 3 4 4 4 5 6 6 7 8 8 9 8 8 7 7 8 8 11 11 10 10 9 9 9 10 10 10 10 9 8 7 7 7 7 6
4 3 3 3 3 3 3 2 1 1 2 3 4 5 5 6 6 7 8 9 9 8 6 6 6 5 9 16 14 12 9 8 8 9 9 8 8 8 7 7 7 6
3 3 2 3 3 2 2 3 4 4 3 2 2 2 3 3 4 6 6 6 7 9 10 8 7 6 13 15 15 16 12 10 10 9 8 8 9 10 10 9 8 7
3 3 2 3 3 3 3 3 3 3 4 5 5 4 3 3 4 5 5 6 6 6 7 8 8 9 14 14 14 15 13 11 9 9 9 9 9 10 9 9 9 9
2 3 3 3 3 3 3 3 4 4 4 5 6 4 4 5 5 4 4 3 4 5 6 4 4 11 14 15 15 16 15 13 9 9 10 10 10 10 10 10 10 9
1 2 3 3 2 2 3 3 4 5 4 3 3 4 5 5 4 6 5 6 6 6 5 5 6 11 16 16 17 17 17 14 9 10 10 10 11 11 10 11 11 11
2 2 3 1 1 2 2 3 3 2 3 3 4 5 6 7 7 6 6 5 6 6 6 6 6 13 16 17 17 17 16 12 8 8 9 9 9 9 10 10 11 10
2 2 1 0 1 1 2 2 1 2 3 2 2 2 1 2 2 3 5 5 5 6 5 7 4 9 11 12 13 14 15 7 7 9 9 8 9 9 9 8 9 10
2 2 2 2 1 1 1 1 2 2 2 2 3 2 2 2 2 1 2 4 5 4 6 5 4 8 10 10 11 14 11 5 5 6 7 9 9 9 8 8 8 9
3 3 3 3 3 3 3 2 1 1 2 2 3 4 4 3 3 3 3 3 4 5 5 5 4 9 13 13 14 15 11 7 7 8 9 9 8 7 6 6 8 11
4 3 3 3 3 4 3 4 3 3 2 2 1 2 3 3 3 2 2 2 3 3 5 5 4 8 14 14 16 16 14 8 8 8 10 10 9 7 4 5 6 7
3 3 3 3 3 3 3 3 3 3 3 3 2 2 2 3 2 2 3 2 3 3 3 4 4 5 11 16 17 18 18 10 8 10 13 12 9 8 8 5 6 5
Wind_Direction
224 221 224 229 232 227 224 220 216 212 205 206 216 214 208 206 201 200 197 196 197 197 195 191 188 190 185 186 185 182 186 185 184 183 188 187 198 184 181 185 198 177
221 220 222 228 237 226 228 228 223 212 207 210 217 216 211 201 200 197 194 196 193 198 196 196 190 187 183 184 184 185 182 184 183 177 176 186 184 170 173 187 179 159
225 227 222 229 236 233 230 230 228 218 213 213 215 213 210 201 198 198 193 193 193 192 192 189 186 187 186 187 184 184 182 178 178 166 169 177 160 163 166 177 175 157
227 232 227 227 232 237 236 232 226 224 216 211 214 210 207 194 195 191 192 189 192 190 188 187 187 184 185 184 182 185 178 177 168 165 177 172 161 159 166 164 139 136
232 226 226 227 228 229 233 235 230 218 199 208 209 208 207 182 186 191 190 188 187 187 184 185 183 183 180 180 178 175 175 169 161 170 167 158 157 154 140 137 150 147
235 233 229 230 229 226 225 230 231 205 204 207 211 205 205 184 194 191 188 185 186 183 182 181 181 180 178 174 174 174 164 155 164 161 152 150 144 132 140 148 152 148
238 233 232 230 230 224 219 215 214 206 197 199 190 202 190 195 198 195 191 188 184 183 181 180 177 176 173 170 173 169 165 157 162 161 153 152 146 146 148 149 147 141
237 236 234 233 231 226 225 225 223 223 205 194 204 202 194 199 199 196 193 188 187 185 185 182 178 175 169 171 170 163 160 160 164 160 155 150 148 148 153 147 143 137
243 238 235 232 232 230 232 229 228 223 203 201 204 201 198 200 197 195 192 189 189 187 186 184 181 174 172 173 167 167 163 162 166 164 161 153 157 156 153 146 140 138
238 234 232 230 228 226 225 223 218 215 208 207 204 198 200 202 198 192 190 190 188 189 187 182 180 175 172 174 169 170 169 167 169 170 169 163 162 158 156 154 150 148
240 232 228 224 225 219 222 218 221 219 211 212 203 206 200 194 199 192 191 191 191 188 185 184 179 173 172 171 171 174 168 164 167 167 162 159 160 157 155 153 156 158
248 244 235 228 223 222 219 214 213 213 206 207 199 197 188 192 192 193 193 194 194 191 186 181 175 176 174 173 169 159 156 158 158 155 156 153 152 153 157 156 157 160
242 243 246 242 231 223 215 210 210 204 198 199 189 190 184 187 192 193 198 193 191 182 185 185 183 176 175 171 161 158 156 155 153 151 154 150 151 151 155 156 162 169
235 234 242 246 253 244 222 214 206 200 200 191 179 186 184 187 186 188 189 188 188 185 183 177 178 182 173 162 157 155 153 156 155 154 153 148 149 152 156 161 169 171
239 228 230 236 240 253 254 238 222 207 197 183 185 190 188 189 185 182 176 185 185 186 185 185 184 179 169 157 151 154 158 157 155 155 153 152 148 144 154 161 167 164
230 234 232 229 222 216 212 206 239 270 212 196 200 197 192 186 184 185 185 184 180 179 174 181 189 180 165 160 160 158 160 154 148 151 153 152 153 157 162 171 167 159
213 225 207 217 212 191 178 170 170 157 166 188 213 198 191 185 175 180 188 188 187 180 176 179 183 178 167 167 164 157 152 152 152 154 156 160 165 170 174 167 160 145
201 196 195 210 180 187 180 174 151 155 172 173 167 170 175 160 186 196 192 185 184 185 190 184 174 162 164 165 159 155 152 151 155 158 165 172 172 175 172 169 157 151
194 189 205 200 203 183 168 152 162 165 168 165 186 180 147 167 189 176 185 171 168 180 175 166 152 156 161 162 160 160 158 154 162 167 171 181 179 176 173 168 158 150
223 215 210 207 187 172 161 165 172 191 186 172 147 138 164 171 168 177 171 174 174 170 170 166 157 165 163 165 168 168 166 163 168 172 176 179 181 178 175 170 164 156
218 232 237 206 173 165 167 183 189 168 152 164 166 174 176 181 176 175 179 171 167 165 166 174 180 176 172 172 174 174 171 165 163 167 172 177 178 178 176 171 166 162
203 222 233 165 142 145 187 207 185 176 174 152 143 152 142 127 142 151 166 172 170 163 164 177 165 176 176 177 173 173 169 168 164 169 171 168 170 172 172 169 166 164
194 193 190 173 158 158 200 197 184 176 147 138 141 151 149 152 161 159 168 166 162 161 162 162 140 170 178 180 177 171 166 171 163 169 171 170 172 169 170 168 169 164
186 184 183 172 168 193 196 183 149 127 144 157 169 166 173 173 161 154 156 170 175 180 180 173 172 173 180 184 181 178 172 168 170 175 177 175 166 164 159 162 169 164
178 179 179 175 187 199 186 177 173 168 133 136 142 144 148 133 140 146 147 155 176 183 180 180 169 175 185 187 185 183 176 177 177 181 177 176 169 165 157 158 160 165
171 182 184 177 190 186 179 184 158 141 145 157 147 144 139 144 142 140 160 168 160 181 189 194 177 177 189 191 190 187 182 178 182 177 185 180 174 164 161 167 164 166